Simultaneous Nadir Overpasses (SNOs) Predictions

Prediction of SNOs between NOAA-15 and METOP-C Satellite Orbit:

Table of predicted SNOs for the next 14.0 days since TLE Epoch: 3/15/2019
Index Date (NOAA-15) Time (NOAA-15) Lat,Lon (NOAA-15) SZA (NOAA-15 ) Date (METOP-C) Time (METOP-C) Lat,Lon (METOP-C) SZA (METOP-C ) Distance(km) Time Diff (sec)
1 03/18/2019 11:23:37 -80.76,-138.17 97.02 03/18/2019 11:22:27 -80.77,-138.22 97.05 1.11 70
2 03/18/2019 12:14:12 80.76, 29.28 82.97 03/18/2019 12:13:08 80.77, 29.13 82.95 2.97 64
3 03/18/2019 13:04:40 -80.77,-163.50 97.05 03/18/2019 13:03:48 -80.78,-163.34 97.04 3.28 52
4 03/18/2019 13:55:16 80.78, 3.59 82.93 03/18/2019 13:54:30 80.76, 3.66 82.90 2.40 46
5 03/18/2019 14:45:43 -80.77, 171.17 97.08 03/18/2019 14:45:10 -80.77, 171.19 97.09 0.55 33
6 03/18/2019 15:36:18 80.77, -21.39 82.91 03/18/2019 15:35:51 80.78, -21.46 82.91 1.65 27
7 03/18/2019 16:26:46 -80.77, 145.84 97.11 03/18/2019 16:26:32 -80.77, 145.72 97.13 2.28 14
8 03/18/2019 17:17:21 80.77, -46.72 82.88 03/18/2019 17:17:12 80.79, -46.57 82.91 3.29 9
9 03/18/2019 18:07:49 -80.78, 120.51 97.14 03/18/2019 18:07:53 -80.78, 120.60 97.13 1.63 4
10 03/18/2019 18:58:24 80.77, -72.05 82.85 03/18/2019 18:58:34 80.78, -72.04 82.86 0.81 10
11 03/18/2019 19:48:52 -80.78, 95.19 97.17 03/18/2019 19:49:15 -80.77, 95.14 97.18 1.37 23
12 03/18/2019 20:39:27 80.78, -97.38 82.82 03/18/2019 20:39:56 80.77, -97.51 82.82 2.32 29
13 03/18/2019 21:29:55 -80.79, 69.86 97.20 03/18/2019 21:30:36 -80.78, 70.02 97.17 2.88 41
14 03/18/2019 22:20:30 80.78,-122.72 82.79 03/18/2019 22:21:17 80.79,-122.63 82.82 1.63 47
15 03/18/2019 23:10:58 -80.79, 44.53 97.23 03/18/2019 23:11:58 -80.78, 44.55 97.22 1.37 60
16 03/19/2019 00:01:33 80.79,-148.05 82.76 03/19/2019 00:02:39 80.78,-148.10 82.78 1.14 66




NCC Satellite Simultaneous Nadir Overpasses (SNOs) Prediction Service
